Find Kosmos-2592

NORAD ID: 65268 Int'l Des: 2025-182 Owner: MORF Country: RU operational
LEOCIRCULARRETROGRADESSO

实时位置

正在加载3D地球...

关于 Kosmos-2592

正在加载描述...

即将过境

Passes for default location (London). Set your location on the main map for personalized predictions.

高度历史

Loading altitude history...

两行轨道根数

1 65268U 25182B 26104.37217147 .00011384 19007-5 28894-4 0 9994
2 65268 96.5912 36.8255 0007687 69.6230 290.5874 15.96300129 37511
Epoch: Apr 14, 2026 • Age: 22 hours

当前状态

高度 317.5 km
速度 7.71 km/s
星下点 -82.04°S, 142.38°E
发射日期 Aug 21, 2025
运行时间 0.6 years
类型 other

技术详情

分类 Payload
质量 520.00 kg
干质量 500.00 kg
总质量 520.00 kg
长度 3.00 m
直径 1.30 m
跨度 3.00 m
形状 Cyl + 2 Pan
制造商 VNIIEMI
平台类型 OO-MKA
阶段状态 In Orbit
所有者/国家 MORF/RU

Most Searched